Flag for Reunion (French) Weather past 2 weeks in Saint-Pierre, Reunion (French)

Now
79 °F

Overcast.


Feels Like: 80 °F
Forecast: 66 / 76 °F
Wind: 5 mph from South

Location: Saint Airport-Pierre

Current Time: May 26, 2015 at 4:02:17 PM

Latest Report: May 26, 2015 at 3:30 PM


Visibility: N/A

Pressure: 30.07 "Hg

Humidity: 51%

Dew point: 59 °F

Location of Saint-PierreLocation

Historic Weather in Saint-Pierre — Graph

°F

Saint-Pierre temperature yesterday

Maximum temperature yesterday: 81 °F (at 12:00 PM)
Minimum temperature yesterday: 70 °F (at 3:30 AM)
Average temperature yesterday: 74 °F

Past Weeks' High & Low Weather Summary

 TemperatureHumidityPressure
High84 °F (May 15, 10:30 AM)94% (May 12, 9:30 PM)30.15 "Hg (May 12, 9:30 PM)
Low68 °F (May 21, 2:30 AM)47% (May 23, 9:00 AM)29.92 "Hg (May 14, 2:00 PM)
Average76 °F71%30.05 "Hg
* Reported May 11 2:00 PM — May 26 2:30 PM, Saint-Pierre, Weather by CustomWeather, © 2015

Note: Actual official high and low records may vary slightly from our data, if they occured in-between our weather recording intervals... More about our weather records

Advertising

Saint-Pierre weather history for previous 24 hours

 ConditionsComfort  
Time TempWeatherWind HumidityBarometerVisibility
2:30 PM
Tue, May 26
79 °FPartly sunny.5 mph54%30.07 "HgN/A
2:00 PM79 °FPartly sunny.5 mph51%30.07 "HgN/A
1:30 PM81 °FOvercast.6 mph51%30.07 "HgN/A
1:00 PM79 °FOvercast.6 mph51%30.07 "HgN/A
12:30 PM79 °FOvercast.6 mph54%30.07 "HgN/A
12:00 PM79 °FOvercast.6 mph51%30.07 "HgN/A
11:30 AM79 °FPartly sunny.6 mph54%30.09 "HgN/A
11:00 AM79 °FPassing clouds.6 mph51%30.09 "HgN/A
10:30 AM81 °FPartly sunny.7 mph48%30.09 "HgN/A
10:00 AM81 °FOvercast.5 mph48%30.09 "HgN/A
9:30 AM79 °FOvercast.6 mph48%30.09 "HgN/A
9:00 AM75 °FOvercast.7 mph50%30.09 "HgN/A
8:30 AM73 °FPartly sunny.8 mph53%30.09 "HgN/A
8:00 AM72 °FPassing clouds.9 mph53%30.09 "HgN/A
7:30 AM70 °FPartly sunny.12 mph57%30.09 "HgN/A
7:00 AM70 °FPartly sunny.12 mph57%30.07 "HgN/A
6:30 AM70 °FPartly sunny.12 mph57%30.07 "HgN/A
6:00 AM70 °FOvercast.12 mph57%30.07 "HgN/A
5:30 AM70 °FPassing clouds.10 mph57%30.07 "HgN/A
5:00 AM70 °FPassing clouds.10 mph57%30.07 "HgN/A
4:30 AM70 °FOvercast.10 mph57%30.07 "HgN/A
4:00 AM70 °FOvercast.9 mph57%30.07 "HgN/A
3:30 AM70 °FPassing clouds.9 mph57%30.07 "HgN/A
3:00 AM70 °FPassing clouds.9 mph60%30.07 "HgN/A
2:30 AM70 °FOvercast.9 mph60%30.07 "HgN/A
2:00 AM70 °FPassing clouds.9 mph60%30.07 "HgN/A
1:30 AM70 °FPassing clouds.10 mph60%30.07 "HgN/A
12:30 AM70 °FPassing clouds.10 mph64%30.07 "HgN/A
12:00 AM72 °FPassing clouds.9 mph65%30.07 "HgN/A
11:30 PM
Mon, May 25
72 °FPassing clouds.9 mph65%30.07 "HgN/A
11:00 PM72 °FPassing clouds.8 mph65%30.07 "HgN/A
10:30 PM72 °FPassing clouds.8 mph65%30.07 "HgN/A
10:00 PM70 °FPassing clouds.7 mph73%30.07 "HgN/A
9:30 PM70 °FPassing clouds.6 mph73%30.09 "HgN/A
9:00 PM70 °FPassing clouds.7 mph73%30.09 "HgN/A
8:30 PM70 °FPassing clouds.6 mph78%30.07 "HgN/A
8:00 PM72 °FOvercast.7 mph73%30.07 "HgN/A
7:30 PM72 °FPassing clouds.5 mph73%30.07 "HgN/A
7:00 PM73 °FPassing clouds.3 mph69%30.07 "HgN/A
6:30 PM75 °FPassing clouds.3 mph61%30.04 "HgN/A
6:00 PM75 °FPartly cloudy.3 mph61%30.04 "HgN/A
5:30 PM75 °FPassing clouds.3 mph65%30.04 "HgN/A
5:00 PM77 °FPassing clouds.5 mph57%30.04 "HgN/A
4:30 PM79 °FPartly sunny.6 mph58%30.04 "HgN/A
4:00 PM79 °FPartly sunny.7 mph58%30.01 "HgN/A
Weather by CustomWeather, © 2015

See weather overviewHow to use our weather pages